Weather observations for the past three days for
Alturas
Metric (Imperial)
Date Time (pdt) Wind (kph) Vis. (km) Weather Sky Cond. Temperature (ºC) Relative Humidity Wind Chill (°C) Heat Index (°C) Pressure Precipitation (cm)
Air Dwpt 6 hour altimeter (cm) sea level (mb) 1 hr 3 hr 6 hr
Max. Min.
16 05:55 Calm 16.09 Fair CLR -0.6 -2.8 85% 76.33 1016.7
16 04:55 NW 6 16.09 Fair CLR -0.6 -5.6 8.9 -0.6 69% 76.33 1016.3
16 03:55 Calm 16.09 Fair CLR 0 -5 69% 76.35 1016.7
16 02:55 Calm 16.09 Fair CLR 2.2 -3.9 64% 76.38 1016.6
16 01:55 Calm 16.09 Fair CLR 3.9 -4.4 55% 76.38 1016.8
16 00:55 W 7 16.09 Fair CLR 6.1 -5 45% 5 76.4 1016.7
15 23:55 N 6 16.09 Fair CLR 8.9 -5.6 36% 76.45 1017.1
15 22:55 E 6 16.09 Fair CLR 7.8 -7.2 18.3 7.8 34% 76.45 1017.6
15 21:55 NW 11 16.09 Fair CLR 10.6 -7.2 28% 76.45 1017.5
15 20:55 NW 11 16.09 Fair CLR 12.2 -8.9 22% 76.4 1016.6
15 19:55 NW 19 16.09 Fair CLR 15 -11.1 15% 76.4 1016.4
15 18:55 NW 24 16.09 Fair CLR 16.7 -12.2 13% 76.43 1016.5
15 17:55 NW 28 G 43 16.09 Fair CLR 16.7 -10 15% 76.4 1016.6
15 16:55 NW 26 G 33 16.09 Fair CLR 17.8 -7.8 18.3 14.4 17% 76.43 1016.7
15 15:55 N 20 G 31 16.09 Fair CLR 17.8 -7.8 17% 76.45 1016.7
15 14:55 W 17 G 35 16.09 Fair CLR 17.8 -7.8 17% 76.5 1017.6
15 13:55 N 24 G 37 16.09 Fair CLR 17.2 -8.3 17% 76.5 1017.5
15 12:55 NW 20 G 35 16.09 Fair CLR 17.2 -6.7 19% 76.48 1017.0
15 11:55 NW 15 16.09 Fair CLR 15.6 -5.6 23% 76.48 1017.0
15 10:55 W 17 G 31 16.09 Fair CLR 14.4 -3.9 15 6.7 28% 76.5 1017.1
15 09:55 NW 15 16.09 Fair CLR 12.2 -3.3 34% 76.53 1017.7
15 08:55 NW 13 16.09 Fair CLR 11.1 -1.7 41% 76.53 1017.6
15 07:55 N 11 16.09 A Few Clouds FEW028 10 1.7 57% 9 76.53 1017.3
15 06:55 W 9 16.09 Fair CLR 8.9 2.2 63% 8 76.53 1017.0
15 05:55 W 11 16.09 Fair CLR 7.8 1.7 66% 6 76.5 1016.4
15 04:55 NW 11 16.09 Fair CLR 8.3 1.1 15.6 8.3 61% 7 76.43 1015.7
15 03:55 W 13 16.09 Fair CLR 10 -1.1 46% 8 76.38 1014.4
15 02:55 W 6 16.09 Fair CLR 8.9 -1.7 48% 76.35 1014.0
15 01:55 Calm 16.09 A Few Clouds FEW047 8.9 -1.7 48% 76.33 1014.0
15 00:55 W 11 16.09 A Few Clouds FEW047 11.1 -1.7 41% 76.33 1013.8
14 23:55 W 15 16.09 Fair CLR 13.3 -2.2 34% 76.35 1014.1
14 22:55 W 15 16.09 Fair CLR 15 -2.2 27.2 15 31% 76.38 1014.3
14 21:55 SW 11 16.09 Fair CLR 15.6 -0.6 33% 76.33 1013.9
14 20:55 NW 19 16.09 Fair CLR 18.9 0 28% 76.25 1012.6
14 19:55 NW 26 16.09 Fair CLR 21.7 -0.6 23% 76.23 1012.4
14 18:55 SW 31 G 46 16.09 Fair CLR 23.9 -6.7 12% 24 76.17 1012.0
14 17:55 W 39 G 54 16.09 Fair and Breezy CLR 26.1 -6.1 11% 25 76.17 1011.9
14 16:55 W 30 G 67 16.09 Fair CLR 25.6 -3.3 28.9 22.2 15% 25 76.17 1011.9
14 15:55 W 31 G 61 16.09 Fair CLR 27.8 1.7 18% 27 76.2 1012.0
14 14:55 W 26 G 52 16.09 Fair CLR 28.9 3.3 19% 27 76.2 1011.4
14 13:55 W 28 G 44 16.09 A Few Clouds FEW090 27.8 4.4 22% 27 76.25 1012.3
14 12:55 S 19 G 26 16.09 Fair CLR 26.1 3.9 24% 26 76.33 1013.1
14 11:55 Calm 16.09 Fair CLR 23.3 5.6 32% 76.38 1013.9
14 10:55 Vrbl 6 16.09 Fair CLR 22.2 6.7 22.2 7.2 37% 76.45 1014.7
14 09:55 Calm 16.09 Fair CLR 20.6 5.6 38% 76.48 1015.3
14 08:55 NE 6 16.09 Fair CLR 19.4 5.6 41% 76.53 1015.9
14 07:55 Calm 16.09 Fair CLR 15 5 51% 76.53 1016.2
14 06:55 Calm 16.09 Fair CLR 11.7 4.4 61% 76.53 1016.2
14 05:55 E 7 16.09 Fair CLR 9.4 3.3 66% 9 76.5 1015.8
14 04:55 Calm 16.09 Fair CLR 9.4 3.9 20 8.9 69% 76.48 1015.6
14 03:55 Calm 16.09 Fair CLR 8.9 3.3 68% 76.48 1015.5
14 02:55 Calm 16.09 Fair CLR 11.7 3.9 59% 76.45 1014.9
14 01:55 Calm 16.09 Fair CLR 12.8 3.3 53% 76.45 1014.7
14 00:55 Calm 16.09 Fair CLR 15.6 3.3 44% 76.48 1014.8
13 23:55 W 11 16.09 Fair CLR 18.3 2.8 36% 76.45 1014.3
13 22:55 W 17 16.09 Fair CLR 20 3.9 31.1 19.4 35% 76.43 1013.7
13 21:55 W 17 16.09 Fair CLR 21.1 4.4 34% 76.35 1013.2
13 20:55 W 19 16.09 Fair CLR 22.8 3.3 28% 76.25 1012.2
13 19:55 W 20 16.09 Fair CLR 25.6 2.2 22% 25 76.2 1011.4
13 18:55 W 28 G 43 16.09 Fair CLR 28.3 0.6 17% 27 76.15 1010.7
13 17:55 W 28 G 48 16.09 Fair CLR 30 0 14% 28 76.12 1011.0
13 16:55 W 19 G 41 16.09 Fair CLR 30.6 0 31.7 26.7 14% 29 76.15 1011.2
13 15:55 W 28 G 54 16.09 Fair CLR 30.6 -0.6 13% 29 76.17 1011.3
13 14:55 W 28 G 52 16.09 Fair CLR 31.1 4.4 18% 29 76.17 1011.0
13 13:55 SW 20 G 31 16.09 Fair CLR 31.1 5 19% 29 76.2 1011.2
13 12:55 W 30 G 41 16.09 Fair CLR 30 3.3 18% 28 76.23 1011.5
13 11:55 SW 19 G 30 16.09 Fair CLR 28.9 5.6 23% 27 76.25 1011.6
13 10:55 N 6 16.09 Fair CLR 27.2 5.6 27.2 6.1 25% 26 76.28 1011.7
13 09:55 Calm 16.09 Fair CLR 23.3 2.8 26% 76.33 1012.6
13 08:55 Calm 16.09 Fair CLR 19.4 2.8 33% 76.33 1013.0
13 07:55 E 6 16.09 Fair CLR 16.7 3.3 41% 76.35 1013.0
13 06:55 E 7 16.09 Fair CLR 13.3 3.3 51% 76.35 1013.2
Date Time (pdt) Wind (kph) Vis. (km) Weather Sky Cond. Air Dwpt Max. Min. Relative Humidity Wind Chill (°C) Heat Index (°C) altimeter (cm) sea level (mb) 1 hr 3 hr 6 hr
6 hour
Temperature (ºC) Pressure Precipitation (cm)